Starlink 30442

operational
NORAD ID: 57868 Int'l Des: 2023-144 Owner: SPXS Country: US Constellation: starlink
LEOCIRCULAR

Starlink 30442について

説明を読み込み中...

リアルタイム位置

3D地球を読み込み中...

次回通過

高度履歴

Altitude vs Time

uPlot chart will show altitude changes over time

軌道要素

1 57868U 23144E 26035.49393935 .00023897 00000-0 17834-2 0 9993
2 57868 43.0009 108.1113 0000470 304.4932 55.5866 15.02423865132572
Epoch: Feb 4, 2026 • Age: 6 hours

現在のステータス

高度 572.0 km
速度 7.58 km/s
衛星直下点 -42.05°S, 10.63°W
打ち上げ日 Sep 16, 2023
運用期間 2.3 years
タイプ internet

技術仕様

分類 Payload
質量 730.00 kg
乾燥質量 700.00 kg
総質量 730.00 kg
長さ 0.30 m
直径 4.10 m
スパン 29.00 m
形状 Box + pan
製造者 SPXS
バスタイプ Starlink V2M
フェーズステータス In Orbit
所有者/国 SPXS/US

大規模コンステレーション

Loading constellations...